Time,TemperatureF,DewpointF,PressureIn,WindDirection,WindDirectionDegrees,WindSpeedMPH,WindSpeedGustMPH,Humidity,HourlyPrecipIn,Conditions,Clouds,dailyrainin,SoftwareType,DateUTC
2013-02-14 00:00:00,43.6,38.5,30.18,NNW,338,2.0,6.0,82,0.00,,CLR,0.00,VWS V13.01,2013-02-14 08:00:00,
2013-02-14 00:15:00,43.4,38.9,30.19,NNW,338,4.0,7.0,84,0.00,,CLR,0.00,VWS V13.01,2013-02-14 08:15:00,
2013-02-14 00:30:00,43.6,39.4,30.19,NNW,338,5.0,9.0,85,0.00,,CLR,0.00,VWS V13.01,2013-02-14 08:30:00,
2013-02-14 00:45:00,43.8,39.6,30.19,North,0,5.0,10.0,85,0.00,,CLR,0.00,VWS V13.01,2013-02-14 08:45:00,
2013-02-14 01:00:00,43.8,39.6,30.19,North,0,4.0,8.0,85,0.00,,CLR,0.00,VWS V13.01,2013-02-14 09:00:00,
2013-02-14 01:15:00,43.6,39.4,30.19,North,0,1.0,6.0,85,0.00,,CLR,0.00,VWS V13.01,2013-02-14 09:15:00,
2013-02-14 01:30:00,43.6,40.0,30.19,North,0,5.0,10.0,87,0.00,,CLR,0.00,VWS V13.01,2013-02-14 09:30:00,
2013-02-14 01:45:00,43.9,40.6,30.19,North,0,5.0,10.0,88,0.00,,CLR,0.00,VWS V13.01,2013-02-14 09:45:00,
2013-02-14 02:00:00,44.0,40.4,30.19,North,0,2.0,7.0,87,0.00,,CLR,0.00,VWS V13.01,2013-02-14 10:00:00,
2013-02-14 02:15:00,43.9,40.3,30.19,North,0,1.0,7.0,87,0.00,,CLR,0.00,VWS V13.01,2013-02-14 10:15:00,
2013-02-14 02:30:00,43.8,40.5,30.19,North,0,2.0,8.0,88,0.00,,CLR,0.00,VWS V13.01,2013-02-14 10:30:00,
2013-02-14 02:45:00,43.8,40.2,30.19,North,0,1.0,7.0,87,0.00,,CLR,0.00,VWS V13.01,2013-02-14 10:45:00,
2013-02-14 03:00:00,43.6,40.0,30.18,North,0,0.0,0.0,87,0.00,,CLR,0.00,VWS V13.01,2013-02-14 11:00:00,
2013-02-14 03:15:00,42.7,38.8,30.18,North,0,0.0,0.0,86,0.00,,CLR,0.00,VWS V13.01,2013-02-14 11:15:00,
2013-02-14 03:30:00,41.9,38.0,30.18,North,0,0.0,0.0,86,0.00,,CLR,0.00,VWS V13.01,2013-02-14 11:30:00,
2013-02-14 03:45:00,41.3,37.7,30.18,North,0,0.0,0.0,87,0.00,,CLR,0.00,VWS V13.01,2013-02-14 11:45:00,
2013-02-14 04:00:00,40.4,36.5,30.18,North,0,0.0,0.0,86,0.00,,CLR,0.00,VWS V13.01,2013-02-14 12:00:00,
2013-02-14 04:15:00,39.9,36.6,30.17,North,0,0.0,0.0,88,0.00,,CLR,0.00,VWS V13.01,2013-02-14 12:15:00,
2013-02-14 04:30:00,39.6,36.6,30.17,North,0,0.0,0.0,89,0.00,,CLR,0.00,VWS V13.01,2013-02-14 12:30:00,
2013-02-14 04:45:00,39.4,36.4,30.17,North,0,0.0,0.0,89,0.00,,CLR,0.00,VWS V13.01,2013-02-14 12:45:00,
2013-02-14 05:00:00,38.8,35.8,30.17,North,0,0.0,0.0,89,0.00,,CLR,0.00,VWS V13.01,2013-02-14 13:00:00,
2013-02-14 05:15:00,38.8,36.4,30.17,North,0,2.0,9.0,91,0.00,,CLR,0.00,VWS V13.01,2013-02-14 13:15:00,
2013-02-14 05:30:00,42.0,40.1,30.17,North,0,7.0,14.0,93,0.00,,CLR,0.00,VWS V13.01,2013-02-14 13:30:00,
2013-02-14 05:45:00,43.4,40.1,30.18,North,0,4.0,11.0,88,0.00,,CLR,0.00,VWS V13.01,2013-02-14 13:45:00,
2013-02-14 06:00:00,43.7,39.8,30.17,North,0,3.0,8.0,86,0.00,,CLR,0.00,VWS V13.01,2013-02-14 14:00:00,
2013-02-14 06:15:00,43.9,39.7,30.18,North,0,5.0,10.0,85,0.00,,CLR,0.00,VWS V13.01,2013-02-14 14:15:00,
2013-02-14 06:30:00,44.1,39.3,30.18,North,0,5.0,10.0,83,0.00,,CLR,0.00,VWS V13.01,2013-02-14 14:30:00,
2013-02-14 06:45:00,44.0,38.9,30.18,North,0,2.0,8.0,82,0.00,,CLR,0.00,VWS V13.01,2013-02-14 14:45:00,
2013-02-14 07:00:00,43.7,38.9,30.19,North,0,3.0,9.0,83,0.00,,CLR,0.00,VWS V13.01,2013-02-14 15:00:00,
2013-02-14 07:15:00,44.4,39.6,30.19,NNW,338,6.0,11.0,83,0.00,,CLR,0.00,VWS V13.01,2013-02-14 15:15:00,
2013-02-14 07:30:00,45.5,40.0,30.19,North,0,4.0,10.0,81,0.00,,CLR,0.00,VWS V13.01,2013-02-14 15:30:00,
2013-02-14 07:41:00,46.2,40.4,30.20,North,355,8.0,8.0,80,0.00,,CLR,0.00,VWS V13.01,2013-02-14 15:41:00,
2013-02-14 07:47:00,46.9,41.1,30.20,North,360,7.0,11.0,80,0.00,,CLR,0.00,VWS V13.01,2013-02-14 15:47:00,
2013-02-14 07:53:00,47.5,41.0,30.20,North,360,4.0,9.0,78,0.00,,CLR,0.00,VWS V13.01,2013-02-14 15:53:00,
2013-02-14 07:59:00,48.3,41.4,30.20,North,350,6.0,9.0,77,0.00,,CLR,0.00,VWS V13.01,2013-02-14 15:59:00,
2013-02-14 08:05:00,48.9,41.3,30.20,North,355,2.0,9.0,75,0.00,,CLR,0.00,VWS V13.01,2013-02-14 16:05:00,
2013-02-14 08:10:00,49.6,41.7,30.20,North,355,5.0,8.0,74,0.00,,CLR,0.00,VWS V13.01,2013-02-14 16:10:00,
2013-02-14 08:16:00,50.4,42.1,30.20,North,355,0.0,8.0,73,0.00,,CLR,0.00,VWS V13.01,2013-02-14 16:16:00,
2013-02-14 08:22:00,51.2,42.1,30.21,North,355,4.0,6.0,71,0.00,,,0.00,VWS V13.01,2013-02-14 16:22:00,
2013-02-14 08:28:00,52.0,42.2,30.21,North,350,5.0,9.0,69,0.00,,,0.00,VWS V13.01,2013-02-14 16:28:00,
2013-02-14 08:34:00,52.8,41.8,30.21,North,360,5.0,9.0,66,0.00,,,0.00,VWS V13.01,2013-02-14 16:34:00,
2013-02-14 08:40:00,53.4,42.3,30.21,North,5,5.0,11.0,66,0.00,,,0.00,VWS V13.01,2013-02-14 16:40:00,
2013-02-14 08:47:00,54.0,42.1,30.21,North,355,5.0,11.0,64,0.00,,,0.00,VWS V13.01,2013-02-14 16:47:00,
2013-02-14 08:53:00,54.6,42.7,30.21,North,360,4.0,10.0,64,0.00,,,0.00,VWS V13.01,2013-02-14 16:53:00,
2013-02-14 08:59:00,55.2,42.8,30.21,North,355,6.0,11.0,63,0.00,,,0.00,VWS V13.01,2013-02-14 16:59:00,
2013-02-14 09:05:00,55.8,43.0,30.21,North,360,3.0,13.0,62,0.00,,,0.00,VWS V13.01,2013-02-14 17:05:00,
2013-02-14 09:11:00,56.1,42.8,30.21,North,360,5.0,14.0,61,0.00,,,0.00,VWS V13.01,2013-02-14 17:11:00,
2013-02-14 09:17:00,56.4,43.6,30.21,North,5,5.0,14.0,62,0.00,,,0.00,VWS V13.01,2013-02-14 17:17:00,
2013-02-14 09:23:00,56.9,44.0,30.21,NNW,348,5.0,16.0,62,0.00,,,0.00,VWS V13.01,2013-02-14 17:23:00,
2013-02-14 09:29:00,57.3,44.0,30.21,North,355,9.0,16.0,61,0.00,,,0.00,VWS V13.01,2013-02-14 17:29:00,
2013-02-14 09:34:00,57.7,43.9,30.21,NNW,342,10.0,17.0,60,0.00,,,0.00,VWS V13.01,2013-02-14 17:34:00,
2013-02-14 09:39:00,58.0,44.2,30.20,NNW,341,9.0,14.0,60,0.00,,,0.00,VWS V13.01,2013-02-14 17:39:00,
2013-02-14 09:46:00,58.4,44.6,30.20,North,360,13.0,16.0,60,0.00,,,0.00,VWS V13.01,2013-02-14 17:46:00,
2013-02-14 09:52:00,58.7,44.4,30.20,North,350,10.0,19.0,59,0.00,,,0.00,VWS V13.01,2013-02-14 17:52:00,
2013-02-14 09:58:00,59.3,45.4,30.20,NNW,342,11.0,19.0,60,0.00,,,0.00,VWS V13.01,2013-02-14 17:58:00,
2013-02-14 10:04:00,59.8,45.0,30.19,North,355,16.0,20.0,58,0.00,,,0.00,VWS V13.01,2013-02-14 18:04:00,
2013-02-14 10:10:00,60.3,45.0,30.20,NNE,20,6.0,20.0,57,0.00,,,0.00,VWS V13.01,2013-02-14 18:10:00,
2013-02-14 10:16:00,60.8,45.0,30.20,North,355,7.0,20.0,56,0.00,,,0.00,VWS V13.01,2013-02-14 18:16:00,
2013-02-14 10:22:00,61.4,45.6,30.20,NNW,344,6.0,17.0,56,0.00,,,0.00,VWS V13.01,2013-02-14 18:22:00,
2013-02-14 10:28:00,62.2,44.9,30.20,NNW,336,9.0,17.0,53,0.00,,,0.00,VWS V13.01,2013-02-14 18:28:00,
2013-02-14 10:34:00,62.8,44.9,30.19,North,9,12.0,20.0,52,0.00,,,0.00,VWS V13.01,2013-02-14 18:34:00,
2013-02-14 10:39:00,63.2,44.8,30.19,NNW,346,12.0,23.0,51,0.00,,,0.00,VWS V13.01,2013-02-14 18:39:00,
2013-02-14 10:46:00,63.8,44.8,30.19,North,350,15.0,23.0,50,0.00,,,0.00,VWS V13.01,2013-02-14 18:46:00,
2013-02-14 10:52:00,64.3,44.8,30.18,NNW,338,10.0,19.0,49,0.00,,,0.00,VWS V13.01,2013-02-14 18:52:00,
2013-02-14 10:58:00,64.9,45.3,30.18,North,5,9.0,19.0,49,0.00,,,0.00,VWS V13.01,2013-02-14 18:58:00,
2013-02-14 11:05:00,65.5,45.3,30.18,NNW,330,15.0,23.0,48,0.00,,,0.00,VWS V13.01,2013-02-14 19:05:00,
2013-02-14 11:10:00,65.9,44.6,30.18,NNW,336,13.0,23.0,46,0.00,,,0.00,VWS V13.01,2013-02-14 19:10:00,
2013-02-14 11:16:00,66.3,45.5,30.18,NNW,348,15.0,23.0,47,0.00,,,0.00,VWS V13.01,2013-02-14 19:16:00,
2013-02-14 11:22:00,66.6,44.6,30.18,NW,325,13.0,26.0,45,0.00,,CLR,0.00,VWS V13.01,2013-02-14 19:22:00,
2013-02-14 11:28:00,67.0,45.0,30.18,NNW,331,23.0,26.0,45,0.00,,CLR,0.00,VWS V13.01,2013-02-14 19:28:00,
2013-02-14 11:34:00,67.3,44.7,30.17,NNW,348,10.0,26.0,44,0.00,,CLR,0.00,VWS V13.01,2013-02-14 19:34:00,
2013-02-14 11:40:00,67.7,45.6,30.17,NNW,340,10.0,22.0,45,0.00,,CLR,0.00,VWS V13.01,2013-02-14 19:40:00,
2013-02-14 11:46:00,68.2,44.3,30.17,NNW,342,12.0,22.0,42,0.00,,CLR,0.00,VWS V13.01,2013-02-14 19:46:00,
2013-02-14 11:52:00,68.4,45.0,30.17,NNW,331,10.0,21.0,43,0.00,,CLR,0.00,VWS V13.01,2013-02-14 19:52:00,
2013-02-14 11:58:00,68.7,44.7,30.17,NNW,338,11.0,21.0,42,0.00,,CLR,0.00,VWS V13.01,2013-02-14 19:58:00,
2013-02-14 12:04:00,69.2,45.2,30.16,NNW,343,17.0,26.0,42,0.00,,CLR,0.00,VWS V13.01,2013-02-14 20:04:00,
2013-02-14 12:11:00,69.1,44.4,30.16,NW,318,15.0,27.0,41,0.00,,CLR,0.00,VWS V13.01,2013-02-14 20:11:00,
2013-02-14 12:17:00,69.0,45.0,30.16,North,349,23.0,27.0,42,0.00,,CLR,0.00,VWS V13.01,2013-02-14 20:17:00,
2013-02-14 12:23:00,69.2,45.2,30.15,North,349,17.0,26.0,42,0.00,,CLR,0.00,VWS V13.01,2013-02-14 20:23:00,
2013-02-14 12:29:00,69.6,45.5,30.14,North,355,17.0,26.0,42,0.00,,CLR,0.00,VWS V13.01,2013-02-14 20:29:00,
2013-02-14 12:34:00,70.0,45.2,30.14,NNE,14,10.0,26.0,41,0.00,,CLR,0.00,VWS V13.01,2013-02-14 20:34:00,
2013-02-14 12:41:00,70.2,45.4,30.13,NNW,329,11.0,29.0,41,0.00,,CLR,0.00,VWS V13.01,2013-02-14 20:41:00,
2013-02-14 12:47:00,70.2,44.8,30.13,NNW,335,17.0,29.0,40,0.00,,CLR,0.00,VWS V13.01,2013-02-14 20:47:00,
2013-02-14 12:53:00,70.2,45.4,30.14,NW,308,15.0,23.0,41,0.00,,CLR,0.00,VWS V13.01,2013-02-14 20:53:00,
2013-02-14 12:59:00,70.5,45.0,30.14,NNE,16,17.0,28.0,40,0.00,,CLR,0.00,VWS V13.01,2013-02-14 20:59:00,
2013-02-14 13:05:00,70.7,45.9,30.14,NNW,331,9.0,28.0,41,0.00,,CLR,0.00,VWS V13.01,2013-02-14 21:05:00,
2013-02-14 13:10:00,71.0,44.8,30.14,NNW,328,13.0,25.0,39,0.00,,CLR,0.00,VWS V13.01,2013-02-14 21:10:00,
2013-02-14 13:16:00,71.2,45.0,30.13,NNW,339,15.0,25.0,39,0.00,,CLR,0.00,VWS V13.01,2013-02-14 21:16:00,
2013-02-14 13:22:00,71.2,45.0,30.12,North,349,20.0,24.0,39,0.00,,CLR,0.00,VWS V13.01,2013-02-14 21:22:00,
2013-02-14 13:28:00,71.5,45.9,30.13,NNE,19,9.0,26.0,40,0.00,,CLR,0.00,VWS V13.01,2013-02-14 21:28:00,
2013-02-14 13:34:00,72.0,45.0,30.13,North,360,8.0,26.0,38,0.00,,CLR,0.00,VWS V13.01,2013-02-14 21:34:00,
2013-02-14 13:40:00,72.3,45.3,30.13,North,355,16.0,21.0,38,0.00,,CLR,0.00,VWS V13.01,2013-02-14 21:40:00,
2013-02-14 13:46:00,72.5,44.8,30.13,NNW,336,14.0,23.0,37,0.00,,CLR,0.00,VWS V13.01,2013-02-14 21:46:00,
2013-02-14 13:52:00,72.6,44.9,30.13,North,355,13.0,18.0,37,0.00,,CLR,0.00,VWS V13.01,2013-02-14 21:52:00,
2013-02-14 13:58:00,73.1,45.3,30.13,NNW,336,18.0,21.0,37,0.00,,CLR,0.00,VWS V13.01,2013-02-14 21:58:00,
2013-02-14 14:04:00,73.5,44.9,30.13,NNW,344,16.0,21.0,36,0.00,,CLR,0.00,VWS V13.01,2013-02-14 22:04:00,
2013-02-14 14:10:00,73.5,44.2,30.13,NNW,347,16.0,21.0,35,0.00,,CLR,0.00,VWS V13.01,2013-02-14 22:10:00,
2013-02-14 14:16:00,73.4,44.8,30.12,North,360,18.0,21.0,36,0.00,,CLR,0.00,VWS V13.01,2013-02-14 22:16:00,
2013-02-14 14:22:00,73.5,44.2,30.11,North,355,16.0,21.0,35,0.00,,CLR,0.00,VWS V13.01,2013-02-14 22:22:00,
2013-02-14 14:28:00,73.6,45.0,30.11,North,360,11.0,21.0,36,0.00,,CLR,0.00,VWS V13.01,2013-02-14 22:28:00,
2013-02-14 14:34:00,73.6,45.0,30.11,North,355,8.0,21.0,36,0.00,,CLR,0.00,VWS V13.01,2013-02-14 22:34:00,
2013-02-14 14:40:00,73.6,44.3,30.11,NNW,336,11.0,21.0,35,0.00,,CLR,0.00,VWS V13.01,2013-02-14 22:40:00,
2013-02-14 14:46:00,73.6,44.3,30.11,NNW,343,17.0,21.0,35,0.00,,CLR,0.00,VWS V13.01,2013-02-14 22:46:00,
2013-02-14 14:52:00,73.7,44.4,30.11,NNW,345,17.0,21.0,35,0.00,,CLR,0.00,VWS V13.01,2013-02-14 22:52:00,
2013-02-14 14:58:00,73.7,44.4,30.11,North,350,16.0,21.0,35,0.00,,CLR,0.00,VWS V13.01,2013-02-14 22:58:00,
2013-02-14 15:04:00,73.7,44.4,30.11,NNW,343,10.0,21.0,35,0.00,,CLR,0.00,VWS V13.01,2013-02-14 23:04:00,
2013-02-14 15:11:00,73.7,43.6,30.12,NNW,347,18.0,22.0,34,0.00,,CLR,0.00,VWS V13.01,2013-02-14 23:11:00,
2013-02-14 15:17:00,73.6,44.3,30.11,NNE,12,14.0,22.0,35,0.00,,CLR,0.00,VWS V13.01,2013-02-14 23:17:00,
2013-02-14 15:23:00,73.5,44.9,30.11,North,5,12.0,18.0,36,0.00,,CLR,0.00,VWS V13.01,2013-02-14 23:23:00,
2013-02-14 15:29:00,73.2,44.7,30.11,North,350,8.0,19.0,36,0.00,,CLR,0.00,VWS V13.01,2013-02-14 23:29:00,
2013-02-14 15:34:00,73.0,43.8,30.11,NNE,20,12.0,23.0,35,0.00,,CLR,0.00,VWS V13.01,2013-02-14 23:34:00,
2013-02-14 15:39:00,72.9,43.7,30.11,North,351,8.0,20.0,35,0.00,,CLR,0.00,VWS V13.01,2013-02-14 23:39:00,
2013-02-14 15:46:00,72.6,44.1,30.11,NNW,347,8.0,20.0,36,0.00,,CLR,0.00,VWS V13.01,2013-02-14 23:46:00,
2013-02-14 15:52:00,72.3,44.6,30.11,North,360,13.0,16.0,37,0.00,,CLR,0.00,VWS V13.01,2013-02-14 23:52:00,
2013-02-14 15:58:00,72.0,44.3,30.11,North,9,12.0,19.0,37,0.00,,CLR,0.00,VWS V13.01,2013-02-14 23:58:00,
2013-02-14 16:04:00,71.7,44.1,30.10,NNW,348,11.0,19.0,37,0.00,,CLR,0.00,VWS V13.01,2013-02-15 00:04:00,
2013-02-14 16:10:00,71.3,43.7,30.11,North,360,9.0,18.0,37,0.00,,CLR,0.00,VWS V13.01,2013-02-15 00:10:00,
2013-02-14 16:16:00,71.2,43.6,30.10,NNW,348,8.0,18.0,37,0.00,,CLR,0.00,VWS V13.01,2013-02-15 00:16:00,
2013-02-14 16:22:00,71.0,42.7,30.11,North,355,12.0,16.0,36,0.00,,CLR,0.00,VWS V13.01,2013-02-15 00:22:00,
2013-02-14 16:28:00,70.8,42.5,30.11,NW,323,7.0,17.0,36,0.00,,CLR,0.00,VWS V13.01,2013-02-15 00:28:00,
2013-02-14 16:34:00,70.6,43.1,30.11,NNW,344,14.0,17.0,37,0.00,,CLR,0.00,VWS V13.01,2013-02-15 00:34:00,
2013-02-14 16:40:00,70.4,42.9,30.11,North,9,6.0,14.0,37,0.00,,CLR,0.00,VWS V13.01,2013-02-15 00:40:00,
2013-02-14 16:46:00,70.2,43.4,30.11,NNW,348,8.0,14.0,38,0.00,,CLR,0.00,VWS V13.01,2013-02-15 00:46:00,
2013-02-14 16:52:00,69.9,43.2,30.10,North,355,7.0,10.0,38,0.00,,CLR,0.00,VWS V13.01,2013-02-15 00:52:00,
2013-02-14 16:58:00,69.6,42.9,30.10,North,350,5.0,13.0,38,0.00,,CLR,0.00,VWS V13.01,2013-02-15 00:58:00,
2013-02-14 17:04:00,69.2,43.2,30.10,North,355,5.0,13.0,39,0.00,,CLR,0.00,VWS V13.01,2013-02-15 01:04:00,
2013-02-14 17:10:00,68.9,43.0,30.10,North,350,5.0,9.0,39,0.00,,CLR,0.00,VWS V13.01,2013-02-15 01:10:00,
2013-02-14 17:16:00,68.6,43.3,30.11,North,351,0.0,9.0,40,0.00,,CLR,0.00,VWS V13.01,2013-02-15 01:16:00,
2013-02-14 17:22:00,68.2,43.0,30.11,North,355,4.0,9.0,40,0.00,,CLR,0.00,VWS V13.01,2013-02-15 01:22:00,
2013-02-14 17:28:00,67.8,42.6,30.11,North,5,3.0,9.0,40,0.00,,CLR,0.00,VWS V13.01,2013-02-15 01:28:00,
2013-02-14 17:34:00,67.5,43.0,30.11,North,5,0.0,9.0,41,0.00,,CLR,0.00,VWS V13.01,2013-02-15 01:34:00,
2013-02-14 17:40:00,67.1,42.6,30.10,North,355,9.0,10.0,41,0.00,,CLR,0.00,VWS V13.01,2013-02-15 01:40:00,
2013-02-14 17:47:00,66.6,42.2,30.10,North,355,2.0,10.0,41,0.00,,CLR,0.00,VWS V13.01,2013-02-15 01:47:00,
2013-02-14 17:53:00,66.1,42.4,30.10,NNE,12,8.0,11.0,42,0.00,,CLR,0.00,VWS V13.01,2013-02-15 01:53:00,
2013-02-14 17:59:00,65.7,42.0,30.10,North,350,0.0,12.0,42,0.00,,CLR,0.00,VWS V13.01,2013-02-15 01:59:00,
2013-02-14 18:04:00,65.4,41.7,30.10,North,355,0.0,12.0,42,0.00,,CLR,0.00,VWS V13.01,2013-02-15 02:04:00,
2013-02-14 18:11:00,65.0,41.4,30.11,North,355,0.0,0.0,42,0.00,,CLR,0.00,VWS V13.01,2013-02-15 02:11:00,
2013-02-14 18:17:00,64.6,41.6,30.11,North,355,0.0,0.0,43,0.00,,CLR,0.00,VWS V13.01,2013-02-15 02:17:00,
2013-02-14 18:23:00,64.1,41.2,30.11,North,355,0.0,0.0,43,0.00,,CLR,0.00,VWS V13.01,2013-02-15 02:23:00,
2013-02-14 18:29:00,63.5,41.2,30.11,North,355,0.0,0.0,44,0.00,,CLR,0.00,VWS V13.01,2013-02-15 02:29:00,
2013-02-14 18:34:00,63.0,41.3,30.11,North,355,0.0,0.0,45,0.00,,CLR,0.00,VWS V13.01,2013-02-15 02:34:00,
2013-02-14 18:41:00,62.5,41.5,30.12,North,355,0.0,0.0,46,0.00,,CLR,0.00,VWS V13.01,2013-02-15 02:41:00,
2013-02-14 18:47:00,62.0,41.0,30.12,North,355,0.0,0.0,46,0.00,,CLR,0.00,VWS V13.01,2013-02-15 02:47:00,
2013-02-14 18:53:00,61.5,41.1,30.12,North,355,0.0,0.0,47,0.00,,CLR,0.00,VWS V13.01,2013-02-15 02:53:00,
2013-02-14 18:59:00,61.0,41.2,30.12,North,355,0.0,0.0,48,0.00,,CLR,0.00,VWS V13.01,2013-02-15 02:59:00,
2013-02-14 19:05:00,60.5,41.3,30.12,North,355,0.0,0.0,49,0.00,,CLR,0.00,VWS V13.01,2013-02-15 03:05:00,
2013-02-14 19:10:00,60.0,40.8,30.12,North,355,0.0,0.0,49,0.00,,CLR,0.00,VWS V13.01,2013-02-15 03:10:00,
2013-02-14 19:16:00,59.5,40.9,30.12,North,355,0.0,6.0,50,0.00,,CLR,0.00,VWS V13.01,2013-02-15 03:16:00,
2013-02-14 19:22:00,59.1,40.0,30.12,North,350,0.0,5.0,49,0.00,,CLR,0.00,VWS V13.01,2013-02-15 03:22:00,
2013-02-14 19:28:00,58.7,39.6,30.12,North,351,0.0,5.0,49,0.00,,CLR,0.00,VWS V13.01,2013-02-15 03:28:00,
2013-02-14 19:34:00,58.4,38.8,30.12,NNW,346,0.0,6.0,48,0.00,,CLR,0.00,VWS V13.01,2013-02-15 03:34:00,
2013-02-14 19:40:00,58.2,38.6,30.12,NNW,347,4.0,8.0,48,0.00,,CLR,0.00,VWS V13.01,2013-02-15 03:40:00,
2013-02-14 19:46:00,58.1,37.5,30.12,NNW,339,7.0,13.0,46,0.00,,CLR,0.00,VWS V13.01,2013-02-15 03:46:00,
2013-02-14 19:52:00,58.3,38.2,30.12,NNW,337,7.0,13.0,47,0.00,,CLR,0.00,VWS V13.01,2013-02-15 03:52:00,
2013-02-14 19:58:00,58.6,38.5,30.11,NNW,339,6.0,13.0,47,0.00,,CLR,0.00,VWS V13.01,2013-02-15 03:58:00,
2013-02-14 20:04:00,58.9,38.2,30.12,NNW,338,10.0,14.0,46,0.00,,CLR,0.00,VWS V13.01,2013-02-15 04:04:00,
2013-02-14 20:10:00,59.0,38.3,30.12,NNW,348,11.0,14.0,46,0.00,,CLR,0.00,VWS V13.01,2013-02-15 04:10:00,
2013-02-14 20:16:00,59.1,38.4,30.12,NNW,344,5.0,14.0,46,0.00,,CLR,0.00,VWS V13.01,2013-02-15 04:16:00,
2013-02-14 20:22:00,59.1,38.4,30.12,NNW,333,8.0,14.0,46,0.00,,CLR,0.00,VWS V13.01,2013-02-15 04:22:00,
2013-02-14 20:28:00,58.9,38.2,30.12,NNW,347,10.0,16.0,46,0.00,,CLR,0.00,VWS V13.01,2013-02-15 04:28:00,
2013-02-14 20:34:00,58.8,38.1,30.12,NNW,334,10.0,19.0,46,0.00,,CLR,0.00,VWS V13.01,2013-02-15 04:34:00,
2013-02-14 20:40:00,58.8,38.1,30.12,NNW,343,9.0,19.0,46,0.00,,CLR,0.00,VWS V13.01,2013-02-15 04:40:00,
2013-02-14 20:47:00,58.9,38.2,30.12,NNW,335,17.0,19.0,46,0.00,,CLR,0.00,VWS V13.01,2013-02-15 04:47:00,
2013-02-14 20:53:00,58.9,38.7,30.12,NNW,338,9.0,18.0,47,0.00,,CLR,0.00,VWS V13.01,2013-02-15 04:53:00,
2013-02-14 20:59:00,58.9,38.2,30.13,North,350,12.0,19.0,46,0.00,,CLR,0.00,VWS V13.01,2013-02-15 04:59:00,
2013-02-14 21:00:00,58.9,38.7,30.13,NNW,338,10.0,19.0,47,0.00,,CLR,0.00,VWS V13.01,2013-02-15 05:00:00,
2013-02-14 21:02:00,58.9,38.7,30.13,NNW,348,11.0,19.0,47,0.00,,CLR,0.00,VWS V13.01,2013-02-15 05:02:00,
2013-02-14 21:03:00,58.9,38.7,30.13,NNW,338,9.0,19.0,47,0.00,,CLR,0.00,VWS V13.01,2013-02-15 05:03:00,
2013-02-14 21:04:00,58.9,38.7,30.13,North,5,11.0,22.0,47,0.00,,CLR,0.00,VWS V13.01,2013-02-15 05:04:00,
2013-02-14 21:11:00,58.9,38.7,30.13,NNW,341,10.0,22.0,47,0.00,,CLR,0.00,VWS V13.01,2013-02-15 05:11:00,
2013-02-14 21:15:00,58.7,39.1,30.14,NNW,338,13.0,22.0,48,0.00,,CLR,0.00,VWS V13.01,2013-02-15 05:15:00,
2013-02-14 21:30:00,58.1,39.6,30.14,NNW,338,12.0,20.0,50,0.00,,CLR,0.00,VWS V13.01,2013-02-15 05:30:00,
2013-02-14 21:45:00,57.6,40.1,30.14,NNW,338,13.0,21.0,52,0.00,,CLR,0.00,VWS V13.01,2013-02-15 05:45:00,
2013-02-14 22:00:00,57.1,40.2,30.15,NNW,338,14.0,21.0,53,0.00,,CLR,0.00,VWS V13.01,2013-02-15 06:00:00,
2013-02-14 22:15:00,56.3,40.4,30.15,North,0,10.0,17.0,55,0.00,,CLR,0.00,VWS V13.01,2013-02-15 06:15:00,
2013-02-14 22:30:00,55.4,40.9,30.16,North,0,8.0,13.0,58,0.00,,CLR,0.00,VWS V13.01,2013-02-15 06:30:00,
2013-02-14 22:45:00,54.2,40.6,30.17,North,0,7.0,17.0,60,0.00,,CLR,0.00,VWS V13.01,2013-02-15 06:45:00,
2013-02-14 23:00:00,53.7,42.2,30.17,North,0,8.0,14.0,65,0.00,,CLR,0.00,VWS V13.01,2013-02-15 07:00:00,
2013-02-14 23:15:00,53.1,42.1,30.17,North,0,6.0,12.0,66,0.00,,CLR,0.00,VWS V13.01,2013-02-15 07:15:00,
2013-02-14 23:30:00,52.3,41.3,30.17,NNW,338,7.0,13.0,66,0.00,,CLR,0.00,VWS V13.01,2013-02-15 07:30:00,
2013-02-14 23:45:00,51.4,40.8,30.17,NNW,338,6.0,10.0,67,0.00,,CLR,0.00,VWS V13.01,2013-02-15 07:45:00,